User: anonymous   Login
Location: Alafon
(8.4500°N, 4.2333°E)
Time: 07:27:43
(UTC+00:00)
Language:

BLOCK DM-SL R/B - Orbit

View from above orbital plane
View from above orbital plane
View from above satellite
View from above satellite

Ground track
Ground track

The orbit data is extracted from the following two-line orbital elements,

1 32405U 08001B   20273.65664137 +.00000024 +00000-0 +84091-3 0  9996
2 32405 006.3002 034.7383 7126608 253.7597 099.6408 02.25198898104578
Epoch (UTC): 29 September 2020 15:45:33
Eccentricity: 0.7126608
inclination: 6.3002°
perigee height: 686 km
apogee height: 35729 km
right ascension of ascending node: 34.7383°
argument of perigee: 253.7597°
revolutions per day: 2.25198898
mean anomaly at epoch: 99.6408°
orbit number at epoch: 10457

The dashed part of the orbit path shows where the satellite is in the earth's shadow,  

DLR